Location: Saint-Palais-sur-Mer
(45.6429°N, 1.0859°W)
Time: 18:12:11
(UTC+02:00)

BlueWalker 3 - Pass Details

Date: 16 May 2026
Orbit: 447 x 457 km, 53.2° (Epoch: 5 June)

Event Time Altitude Azimuth Distance (km) Brightness Sun altitude
Exits shadow 02:38:57 40° 27° (NNE) 676 3.0 -24.7°
Drops below altitude 10° 02:41:30 10° 53° (NE) 1,576 5.0 -24.6°
Sets 02:43:39 0° 57° (ENE) 2,450 6.1 -24.6°
